Location: Unspecified
(0.0000°N, 0.0000°E)
Time: 00:22:27
(UTC+00:00)

Tiros 1 despin weight - All Passes

Search period start: 13 December 2018 00:00
Search period end: 23 December 2018 00:00
Orbit: 594 x 643 km, 48.2° (Epoch: 12 December)

Date Brightness Start Highest point End Pass type
(mag) Time Alt. Az. Time Alt. Az. Time Alt. Az.
13 Dec - 09:23:17 10° NNW 09:27:54 57° NE 09:32:28 10° SE daylight
13 Dec - 11:07:57 10° WSW 11:09:21 11° SW 11:10:45 10° SSW daylight
13 Dec - 21:31:45 10° SW 21:36:10 85° NW 21:40:36 10° NE night (unlit)
14 Dec - 08:01:01 10° NNE 08:03:04 13° NE 08:05:06 10° ENE daylight
14 Dec - 09:40:00 10° NW 09:44:31 51° SW 09:49:03 10° SSE daylight
14 Dec - 20:08:19 10° S 20:11:26 19° SE 20:14:33 10° E visible
14 Dec - 21:48:59 10° WSW 21:52:49 29° NW 21:56:39 10° N night (unlit)
15 Dec - 08:15:35 10° NNW 08:19:46 32° NE 08:23:57 10° ESE daylight
15 Dec - 09:57:49 10° W 10:01:11 19° SW 10:04:33 10° S daylight
15 Dec - 20:23:49 10° SSW 20:28:06 51° SE 20:32:23 10° NE visible
15 Dec - 22:08:23 10° WNW 22:09:32 11° NW 22:10:41 10° NW night (unlit)
16 Dec - 08:31:43 10° NW 08:36:25 89° ENE 08:41:06 10° SE daylight
16 Dec - 19:02:23 10° SE 19:03:18 11° SE 19:04:14 10° ESE visible
16 Dec - 20:40:27 10° SW 20:44:44 53° NW 20:49:02 10° NNE visible
17 Dec - 07:08:19 10° N 07:11:38 19° NE 07:14:58 10° E daylight
17 Dec - 08:48:51 10° WNW 08:53:04 33° SW 08:57:17 10° SSE daylight
17 Dec - 19:16:13 10° S 19:20:02 28° SE 19:23:49 10° ENE visible
17 Dec - 20:58:15 10° W 21:01:24 19° NW 21:04:33 10° N visible
18 Dec - 07:23:47 10° NNW 07:28:18 49° NE 07:32:51 10° SE daylight
18 Dec - 09:07:36 10° WSW 09:09:46 13° SW 09:11:56 10° SSW daylight
18 Dec - 19:32:16 10° SW 19:36:40 83° SE 19:41:04 10° NE visible
19 Dec - 06:02:13 10° NNE 06:03:28 11° NE 06:04:42 10° ENE daylight
19 Dec - 07:40:20 10° NW 07:44:56 59° SW 07:49:34 10° SSE daylight
19 Dec - 18:09:07 10° S 18:11:55 16° SE 18:14:42 10° E daylight
19 Dec - 19:49:20 10° WSW 19:53:19 33° NW 19:57:17 10° NNE visible
20 Dec - 06:16:10 10° N 06:20:11 28° NE 06:24:13 10° ESE daylight
20 Dec - 07:57:58 10° WNW 08:01:37 22° SW 08:05:15 10° S daylight
20 Dec - 18:24:23 10° SSW 18:28:36 44° SE 18:32:47 10° ENE visible
20 Dec - 20:08:06 10° WNW 20:10:00 12° NW 20:11:53 10° NNW visible
21 Dec - 06:32:09 10° NW 06:36:50 78° NE 06:41:32 10° SE daylight
21 Dec - 18:40:52 10° SW 18:45:14 62° NW 18:49:34 10° NNE visible
22 Dec - 05:09:04 10° N 05:12:03 17° NE 05:15:01 10° E visible
22 Dec - 06:49:08 10° WNW 06:53:28 38° SW 06:57:50 10° SSE daylight
22 Dec - 17:16:52 10° S 17:20:31 25° SE 17:24:08 10° ENE daylight
22 Dec - 18:58:28 10° WSW 19:01:53 22° NW 19:05:17 10° N visible
